Cloud_Cover
45 96 9 8 91 97 90 76 82 0 0 0 0 0 0 0 32 69 34 84 91 2 0 5 4 1 5 6 5 35 86 10 9 0 0 0 7 41 72 22 68 76 98
0 0 1 0 0 14 64 24 33 0 0 0 0 0 0 1 55 72 16 76 100 9 5 5 5 5 5 5 5 10 73 78 96 0 0 0 27 3 12 12 100 67 16
0 0 0 0 0 0 35 5 5 0 0 0 0 0 0 1 64 89 25 100 100 5 59 63 5 5 5 6 100 97 70 81 100 1 0 0 1 1 11 29 78 100 64
0 0 0 0 0 0 6 5 0 0 0 0 0 0 0 6 69 69 6 100 100 5 100 76 19 23 5 67 100 100 99 91 100 0 0 0 16 31 63 78 98 100 100
33 0 0 0 0 0 2 18 0 0 0 0 0 0 0 20 61 51 2 93 100 18 100 50 80 11 74 100 52 100 100 87 71 0 0 5 70 84 99 99 100 89 99
0 0 0 0 3 2 0 0 5 1 0 0 0 0 0 1 53 0 0 75 100 50 5 20 9 5 100 94 7 5 64 89 6 0 0 83 100 100 100 92 100 99 100
1 0 0 4 27 5 5 3 0 0 5 10 38 0 2 20 8 10 11 62 100 98 6 5 18 5 25 35 6 6 91 91 92 0 14 99 100 100 100 97 100 100 100
0 0 1 1 5 80 73 0 0 1 3 74 81 0 12 55 38 34 28 76 100 100 6 5 55 12 32 6 28 67 44 100 74 0 2 30 82 87 100 91 99 100 100
0 0 1 5 94 50 14 5 2 16 20 100 100 47 31 63 99 50 52 16 99 100 7 5 70 65 54 5 7 7 6 100 19 0 3 5 22 100 79 93 99 100 100
0 0 1 5 19 5 30 0 0 5 16 98 4 35 64 67 100 100 69 5 99 100 10 76 77 70 11 61 4 5 67 95 53 0 24 34 67 99 100 97 97 100 100
55 38 52 10 44 16 5 0 50 5 0 8 1 62 71 61 72 100 54 95 77 100 98 35 96 35 6 18 5 0 3 60 40 0 24 84 68 99 78 81 100 100 100
42 64 24 86 38 5 5 5 54 4 12 22 19 100 100 78 6 100 94 93 43 100 100 92 100 70 5 100 75 5 0 7 44 0 18 62 81 86 98 87 100 100 99
93 87 94 77 80 16 22 70 93 62 2 0 79 99 100 96 33 58 97 91 87 85 100 34 45 100 95 65 100 64 17 5 35 2 1 21 47 51 71 84 100 100 98
100 100 100 100 99 98 98 43 78 52 66 4 60 100 100 100 52 60 100 100 100 83 74 97 5 88 100 5 57 85 4 2 5 3 0 9 41 88 57 61 92 100 68
100 100 100 100 100 100 100 87 100 100 100 17 1 57 96 96 68 99 100 98 100 91 100 100 36 93 100 94 28 12 5 46 5 5 4 0 0 49 70 71 18 100 62
99 100 100 100 100 100 100 100 100 100 100 100 91 8 13 34 84 100 100 100 100 100 100 100 91 12 100 100 100 99 5 17 19 5 45 0 0 2 54 38 29 100 98
100 100 92 100 100 100 100 100 100 100 100 100 100 100 100 100 100 100 100 100 100 100 100 100 100 5 30 100 100 100 32 20 74 66 5 0 0 5 24 40 44 35 95
100 100 100 100 100 100 100 100 100 100 100 100 100 100 100 100 100 100 100 100 100 100 100 100 100 94 50 84 100 79 97 37 52 7 5 5 0 0 0 24 33 40 28
100 100 100 100 100 100 100 100 100 100 100 100 100 100 100 100 100 100 100 100 100 100 100 100 100 100 100 82 100 77 100 100 80 9 21 4 5 5 0 1 3 18 12
100 100 100 100 100 100 100 100 100 100 100 100 100 100 100 100 100 100 100 100 100 100 100 100 100 100 100 7 97 13 64 100 96 6 36 0 3 5 3 0 0 0 2
100 100 100 100 100 100 100 100 100 100 100 100 100 100 100 100 100 100 100 100 100 100 100 100 100 100 87 16 87 48 38 100 100 34 26 13 5 5 34 0 5 0 4
100 100 100 100 100 100 100 100 100 100 100 100 100 100 100 100 100 100 100 100 100 100 100 100 100 100 100 99 97 54 12 100 90 6 5 1 0 4 4 2 6 11 2
100 100 100 100 100 100 100 100 100 100 100 100 100 100 100 100 100 100 100 100 100 100 100 100 100 100 100 100 100 100 92 94 100 100 84 5 5 5 4 3 5 5 5
100 100 100 100 100 100 100 100 100 100 100 100 100 100 100 100 100 100 100 100 100 100 99 100 100 100 100 100 83 100 94 99 100 100 92 5 4 5 5 5 5 5 5
100 100 100 100 100 100 100 100 100 100 100 100 100 100 100 100 100 100 100 100 100 100 100 100 100 100 100 100 100 100 100 100 52 92 94 37 30 5 5 12 5 5 51
100 98 100 100 100 100 100 100 100 100 100 100 100 100 100 100 100 100 100 100 100 100 100 100 100 100 100 100 100 100 100 100 100 100 68 95 34 63 11 13 10 48 5